Regional Weather Roundup
Issued by NWS

Home | Current Version | Previous Version | Text Only | Print | Product List | Glossary On
Versions: 1 2 3 4 5 6 7 8 9 10 11 12 13 14 15 16 17 18 19 20 21 22 23 24 25 26 27 28 29 30 31 32 33 34 35 36 37 38 39 40 41 42 43 44 45 46 47 48 49 50
000
ASCA44 KEWX 161020
RWRMX

LATIN AMERICA AND CARIBBEAN REGIONAL WEATHER ROUNDUP
NATIONAL WEATHER SERVICE AUSTIN/SAN ANTONIO TX
500 AM CDT WED APR 16 2014

NOTE: "FAIR" INDICATED FEW OR NO CLOUDS BELOW 12,000 FEET WITH NO
SIGNIFICANT WEATHER AND/OR OBSTRUCTIONS TO VISIBILITY.

BAJA CALIFORNIA

CITY           SKY/WX    TMP DP  RH WIND       PRES   REMARKS
TIJUANA        CLOUDY    55  50  82 CALM      29.89F FOG

NORTHWESTERN MEXICO

CITY           SKY/WX    TMP DP  RH WIND       PRES   REMARKS

NORTHEASTERN MEXICO

CITY           SKY/WX    TMP DP  RH WIND       PRES   REMARKS
MONTERREY      CLEAR     46  39  76 CALM      30.05F
NUEVO LAREDO   PTCLDY    52  34  50 CALM      30.08
REYNOSA        CLEAR     46  36  66 E6        30.08  WCI  43

WESTERN MEXICO

CITY           SKY/WX    TMP DP  RH WIND       PRES   REMARKS
DEL BAJIO      PTCLDY    54  39  58 CALM      30.15S
GUADALAJARA    CLEAR     59  48  67 CALM      30.08S
MAZATLAN       PTCLDY    61  50  67 N9        29.84S
P. VALLARTA    CLEAR     70  64  83 CALM      29.86S
ZACATECAS      CLEAR     41  32  70 CALM      30.16F

CENTRAL MEXICO

CITY           SKY/WX    TMP DP  RH WIND       PRES   REMARKS
MEXICO CITY    CLEAR     52  46  82 NE5       30.23F
MORELIA        CLEAR     61  45  55 S7        30.13F
QUERETARO      CLEAR     48  39  71 CALM      30.26S
S. LUIS POTOSI CLEAR     39  32  75 CALM      30.16F
TOLUCA         MOCLDY    48  45  87 CALM      30.30F

SOUTHERN MEXICO

CITY           SKY/WX    TMP DP  RH WIND       PRES   REMARKS
ACAPULCO       CLEAR     75  70  83 NW3       29.84F
VERACRUZ       CLOUDY    63  50  63 NW3       30.07

YUCATAN PENINSULA

CITY           SKY/WX    TMP DP  RH WIND       PRES   REMARKS
CANCUN         MOCLDY    72  72 100 NW5       29.92S
CD. DEL CARMEN DRIZZLE   73  70  88 N17G29    29.98S
COZUMEL        MOCLDY    70  70 100 CALM      29.92R
MERIDA         MOCLDY    72  70  94 N6        29.95F
MINATITLAN     CLEAR     68  64  88 CALM      30.05
TAPACHULA      CLEAR     77  73  88 E8        29.81F
VILLAHERMOSA   DRZL/FOG  66  64  94 SW9       30.08S VSB 1/2

CENTRAL AMERICA

CITY           SKY/WX    TMP DP  RH WIND       PRES   REMARKS
MANAGUA        PTSUNNY   82  72  69 E9        29.80S

CARIBBEAN

CITY           SKY/WX    TMP DP  RH WIND       PRES   REMARKS
ARUBA          PTCLDY    79  73  83 E15       29.83
CURACAO        PTCLDY    79  73  83 E12       29.89R
KINGSTON       PTCLDY    77  72  83 N5        29.92S
NASSAU         PTCLDY    77  72  83 SW9       29.96R
SAN JUAN       PTCLDY    79  72  78 CALM      29.97R
SANTO DOMINGO  PTCLDY    72  70  94 N5        29.92R
ST. CROIX      CLEAR     73  68  83 N5        29.96R
ST. KITTS      PTCLDY    77  70  78 E7        29.94
ST. THOMAS     CLEAR     75  72  88 CALM      29.96R

$$




USA.gov is the U.S. government's official web portal to all federal, state and local government web resources and services.